EW0541 Weather Reports


time (UTC)temp
C
wind
direction
speed
KPH
gust
KPH
rain 1hr
cm
rain 24hr
cm
rain mn
cm
humidity
%
barometer
mb
20260507030041 15 331 3.2 0.0 0.00 0.00 0.48 78 1008.0
20260507024550 15 232 3.2 0.0 0.00 0.00 0.48 77 1008.0
20260507023039 15 360 3.2 0.0 0.00 0.00 0.48 77 1007.7
20260507021536 15 322 3.2 0.0 0.00 0.00 0.48 77 1007.7
20260507020037 16 5 3.2 0.0 0.00 0.00 0.48 77 1007.8
20260507014535 16 257 4.8 0.0 0.00 0.00 0.48 77 1008.0
20260507013038 16 300 3.2 0.0 0.00 0.00 0.48 78 1008.0
20260507011534 16 290 3.2 0.0 0.00 0.00 0.48 78 1007.8
20260507010037 17 298 3.2 0.0 0.00 0.00 0.48 79 1007.6
20260507004529 18 284 3.2 0.0 0.00 0.00 0.48 81 1007.1
20260507003028 18 266 3.2 0.0 0.00 0.00 0.48 83 1006.8
20260507001530 18 254 1.6 0.0 0.00 0.00 0.48 81 1006.7
20260507000029 19 263 3.2 0.0 0.00 0.00 0.48 79 1006.1
20260506234543 19 298 1.6 0.0 0.00 0.00 0.48 78 1005.9
20260506233027 19 254 1.6 0.0 0.00 0.00 0.48 78 1005.7
20260506231525 19 228 1.6 0.0 0.00 0.00 0.48 77 1005.7
20260506230025 20 273 1.6 0.0 0.00 0.00 0.48 77 1005.6
20260506224529 20 262 0.0 0.0 0.00 0.00 0.48 77 1005.6
20260506223024 20 290 3.2 0.0 0.00 0.00 0.48 77 1005.5
20260506221524 20 272 0.0 0.0 0.00 0.00 0.48 78 1005.6
20260506220032 20 277 0.0 0.0 0.00 0.00 0.48 77 1005.2
20260506214523 20 273 0.0 0.0 0.00 0.00 0.48 77 1005.2
20260506213022 20 275 1.6 0.0 0.00 0.00 0.48 77 1005.2
20260506211522 20 267 1.6 0.0 0.00 0.00 0.48 76 1004.9
20260506210020 20 309 1.6 0.0 0.00 0.00 0.48 79 1004.8
20260506204518 19 186 3.2 0.0 0.00 0.00 0.48 78 1004.8
20260506203018 19 215 3.2 0.0 0.00 0.00 0.48 78 1004.9
20260506201517 19 194 3.2 0.0 0.00 0.00 0.48 78 1004.8
20260506200016 20 197 4.8 0.0 0.00 0.00 0.48 77 1004.9
20260506194519 19 187 4.8 0.0 0.00 0.00 0.48 78 1004.9
20260506193013 19 263 3.2 0.0 0.00 0.00 0.48 79 1005.1
20260506191512 18 293 3.2 0.0 0.00 0.00 0.48 79 1005.1
20260506190012 18 225 3.2 0.0 0.00 0.00 0.48 81 1005.2
20260506184510 18 225 3.2 0.0 0.00 0.00 0.48 81 1005.2
20260506183010 17 176 3.2 0.0 0.00 0.00 0.48 82 1005.5
20260506181508 17 185 3.2 0.0 0.00 0.00 0.48 85 1005.6
20260506180008 16 277 1.6 0.0 0.00 0.00 0.48 86 1005.8
20260506174508 16 186 1.6 0.0 0.00 0.00 0.48 86 1006.1
20260506173008 16 90 1.6 0.0 0.00 0.00 0.48 86 1006.0
20260506171507 16 175 3.2 0.0 0.00 0.00 0.48 87 1006.0
20260506170006 16 206 3.2 0.0 0.00 0.00 0.46 87 1005.8
20260506164512 16 144 3.2 0.0 0.00 0.00 0.46 88 1005.9
20260506163005 16 188 3.2 0.0 0.00 0.00 0.46 88 1006.1
20260506161505 16 187 1.6 0.0 0.00 0.00 0.46 88 1006.2
20260506160004 16 313 1.6 0.0 0.00 0.00 0.46 88 1006.1
20260506154510 16 188 1.6 0.0 0.00 0.00 0.46 88 1005.6
20260506153002 16 115 1.6 0.0 0.00 0.00 0.43 87 1006.1
20260506151501 16 183 1.6 0.0 0.00 0.00 0.36 87 1006.8
20260506150105 16 177 1.6 0.0 0.00 0.00 0.33 87 1006.8
20260506144607 16 269 1.6 0.0 0.00 0.00 0.25 86 1007.0
20260506143059 16 153 1.6 0.0 0.00 0.00 0.20 86 1006.6
20260506141557 16 182 1.6 0.0 0.00 0.00 0.18 85 1006.6
20260506140057 16 173 1.6 0.0 0.00 0.00 0.15 84 1006.6
20260506134554 16 257 0.0 0.0 0.00 0.00 0.08 83 1006.6
20260506133056 17 236 1.6 0.0 0.00 0.00 0.03 82 1006.7
20260506131559 17 167 0.0 0.0 0.00 0.00 0.03 81 1006.7
20260506130053 17 254 1.6 0.0 0.00 0.00 0.00 79 1006.7
20260506124548 17 317 1.6 0.0 0.00 0.00 0.00 78 1006.7
20260506123047 17 231 0.0 0.0 0.00 0.00 0.00 78 1006.8
20260506121545 17 188 0.0 0.0 0.00 0.00 0.00 78 1007.0
20260506120045 17 184 0.0 0.0 0.00 0.00 0.00 77 1006.6
20260506114543 17 173 1.6 0.0 0.00 0.00 0.00 76 1006.4
20260506113043 18 153 1.6 0.0 0.00 0.00 0.00 74 1006.4
20260506111542 18 277 1.6 0.0 0.00 0.00 0.00 74 1006.4
20260506110041 18 178 1.6 0.0 0.00 0.00 0.00 74 1006.1
20260506104546 18 260 1.6 0.0 0.00 0.00 0.00 73 1005.9
20260506103040 18 184 1.6 0.0 0.00 0.00 0.00 73 1005.8
20260506101537 18 154 3.2 0.0 0.00 0.00 0.00 72 1005.7
20260506100039 18 250 1.6 0.0 0.00 0.00 0.00 72 1005.7
20260506094548 18 186 1.6 0.0 0.00 0.00 0.00 71 1005.6
20260506093039 18 179 1.6 0.0 0.00 0.00 0.00 71 1005.6
20260506091535 18 185 0.0 0.0 0.00 0.00 0.00 70 1005.8
20260506090035 18 95 1.6 0.0 0.00 0.00 0.00 69 1005.9
20260506084534 18 151 1.6 0.0 0.00 0.00 0.00 68 1005.8
20260506083033 18 78 0.0 0.0 0.00 0.00 0.00 67 1005.9
20260506081534 18 79 0.0 0.0 0.00 0.00 0.00 66 1005.8
20260506073025 20 180 1.6 0.0 0.00 0.00 0.00 61 1005.9
20260506071525 20 109 0.0 0.0 0.00 0.00 0.00 61 1006.0
20260506061517 20 12 0.0 0.0 0.00 0.00 0.00 58 1006.5
20260506044510 20 169 1.6 0.0 0.00 0.00 0.00 54 1007.1
20260506043008 20 171 1.6 0.0 0.00 0.00 0.00 54 1007.1
20260506041512 20 153 0.0 0.0 0.00 0.00 0.00 53 1007.2
20260506040008 20 50 1.6 0.0 0.00 0.00 0.00 52 1007.1
20260506034504 20 181 1.6 0.0 0.00 0.00 0.00 52 1007.1
20260506033005 20 184 1.6 0.0 0.00 0.00 0.00 52 1007.0
20260506031503 20 83 1.6 0.0 0.00 0.00 0.00 53 1007.1